Погода в Вологде

Погода в Вологде : погода сейчас, прогноз погоды и архив. Всё, что Вы хотите узнать о погоде в Вологде!

Хотите узнать прогноз погоды в Вологде? Тогда Вам сюда: Погода в Вологде

Поиск расширенной информации на нашем сайте:

Полезная информация:

Другие новости

Новости СМИ2

Главная страница сайта

Новости сайта

03.07.2017

Напоминаем, что на нашем специализированном сайте Метеоцентр.Азия вы можете получить высокодетализированные автоматические прогнозы погоды по пунктам России, СНГ и мира в авиационном формате (включающие направление и скорость ветра, видимость, явления погоды, количество и форму облачности, нижнюю и верхнюю границу облачности).

Рекомендуем:

Погода в Вологде - сегодня

Время (UTC), дата Ветер
(°,м/с) 
Видим.   Явления Облачность Т
(°С)
Тd
(°С)
f(%) Тe
(°С)
Pmin
(гПа)
dP
(гПа)
Po
(мм)
O2
(г/м3)
Тmin Tmax R s Состояние
почвы
12 15.07.19 310 (СЗ) 20000 м    9/9 420 м кучево-дожд. 
[Cb cap]
+19 +7.5 47 +21  1010.4  -0.2  746  280           
15 15.07.19 130 (ЮВ) 20000 м    9/9 600 м кучево-дожд. 
[Cb cap]
+17.8 +9.7 59 +20  1010.5  0.1  746  281    +21.1       
18 15.07.19 030 (СВ) 20000 м    8/6 600 м кучево-дожд., средняя 
[Cb cap|Ac trans]
+13.3 +9.8 79 +16  1011.1  0.3  747  285           
21 15.07.19 240 (ЮЗ) 20000 м    6/3 2000 м средняя, верхняя 
[Ac trans|Ci fib]
+10.1 +8.6 90 +11  1011.1  -0.2  746  289           
00 16.07.19 //0 (С) //  н/о  местами туман поземный  3/0 средняя 
[Ac trans]
             
03 16.07.19 230 (ЮЗ) 20000 м  местами туман поземный  8/8 2000 м средняя 
[Ac trans]
+9.3 +8.2 93 +10  1012.2  0.7  747  290  +7        сухая 
06 16.07.19 260 (З) 20000 м    3/1 600 м средняя, верхняя 
[Cu hum|Ac trans|Ci fib]
+18 +10.4 61 +21  1011.7  0.1  747  281           
09 16.07.19 340 (С) 20000 м  {ливн. осадки}  6/3 600 м средняя, верхняя 
[Cu med, cong|Ac trans|Ci fib]
+21 +5.9 37 +21  1012  0.3  748  279           
12 16.07.19 160 (Ю) 20000 м  {ливн. осадки}  6/3 600 м кучево-дожд., средняя, верхняя 
[Cb cap|Ac trans|Ci fib]
+21.6 +5.3 35 +22  1011.5  -0.3  747  278           
15 16.07.19 090 (В) 20000 м    6/3 600 м кучево-дожд., средняя, верхняя 
[Cb cap|Ac trans|Ci fib]
+21.4 +5.6 36 +21  1011.6  -0.1  747  278    +22  0.0     
18 16.07.19 тихо ()   20000 м    8/3 600 м средняя, верхняя 
[Sc|Ac trans|Ci fib]
+16.5 +11.5 72 +20  1012.3  0.5  748  282           
21 16.07.19 090 (В) 20000 м    10/6 600 м средняя 
[Sc|Ac trans]
+16.2 +8.7 61 +18  1012.1  -0.2  748  283           
00 17.07.19 150 (ЮВ) 10 км  слаб. дождь  10/10 420 м 
[Sc]
+13.8 +11 83 +18  1012.9  0.6  748  285           
03 17.07.19 050 (СВ) 10 км  слаб. дождь  10/8 240 м средняя 
[Frnb|As op]
+13.6 +12.3 92 +18  1012.1  -0.8  747  284  +13.5      влажная 
06 17.07.19 090 (В) 20000 м  в посл. час дождь  10/10 330 м 
[Sc]
+15.1 +14.2 94 +22  1011.7  -0.3  747  282           
09 17.07.19 100 (В) 20000 м  в посл. час дождь  10/8 450 м средняя 
[Sc|Ac trans]
+16.2 +14.5 90 +25  1012.1  0.5  748  281           
12 17.07.19 //0 (С) //  н/о  {дождь}  10/0 кучево-дожд., средняя 
[Cb cap|Ac trans]
             
15 17.07.19 070 (В) 20000 м  {гроза, ливн. осадки}  10/4 600 м кучево-дожд., средняя 
[Cb cap|Ac trans]
+20.1 +16.3 79 +31  1010.5  -1  747  277    +21     
18 17.07.19 010 (С) 1{12}  20000 м  в посл. час ливневой дождь{гроза}  10/10 450 м кучево-дожд. 
[Cb cap]
+14 +12.9 93 +20  1011.3  0.3  747  284           
21 17.07.19 040 (СВ) 20000 м  {ливн. осадки}  10/10 480 м 
[Sc]
+15.6 +14.9 96 +25  1010.3  -0.8  746  281           
00 18.07.19 100 (В) 20000 м  {ливн. осадки}  10/8 480 м средняя 
[Sc|Ac trans]
+15.6 +14 90 +23  1009.2  -1.1  745  281           
03 18.07.19 070 (В) 10 км  слаб. дождь  10/8 450 м средняя 
[Sc|Ac trans]
+15 +12.1 83 +19  1007.8  -1.5  744  282  +13.7      влажная 
06 18.07.19 090 (В) 10 км  слаб. дождь  10/3 240 м средняя 
[Frnb|Ac trans]
+15.4 +14 91 +23  1007.1  -0.6  744  281           
09 18.07.19 120 (ЮВ) 10 км  слаб. дождь  10/3 360 м средняя 
[Frnb|Ac As]
+15.6 +14.9 96 +25  1007.2  0.1  744  280           
12 18.07.19 090 (В) 10 км  слаб. дождь  10/6 450 м средняя 
[Frnb|Ac As]
+17.1 +16.1 94 +29  1006.8  -0.3  744  278           
Время (UTC), дата Ветер
(°,м/с) 
Видим.   Явления Облачность Т
(°С)
Тd
(°С)
f(%) Тe
(°С)
Pmin
(гПа)
dP
(гПа)
Po
(мм)
O2
(г/м3)
Тmin Tmax R s Состояние
почвы

Для получения пояснительной информации подведите курсор к названию столбца.

ПОГОДА в Вологде - архив

Всё, что Вы хотите узнать о погоде в Вологде - удобно и подробно!

Выберите нужную дату (начиная с 1 января 2018* года) и нажмите кнопку "Найти".
Будут отображены архивные сводки погоды по пункту Вологда, начиная с указанной даты.


Отображать данные в формате CSV (для использования в таблицах Excel)


Внимание! Наш архив погоды предназначен исключительно для личного некоммерческого использования в познавательных целях. Если Вам необходимы официальные справки о состоянии погоды (для производственных, юридических, коммерческих и т.п. целей), обращайтесь в органы Росгидромета.

*Примечание: данная дата относится к архиву по метеостанциям СССР (Россия, СНГ, Балтия).
Архив по метеостанциям Зарубежной Европы и Азии (кроме Китая) хранится 10 дней, по другим регионам земного шара (Китай, Африка, Америка, Австралия, Океания) - 1 день.

Вологда - район местоположения метеостанции


Название, широта, долгота, высота метеостанции:
Вологда (город) 59.3°ш. 39.9°д. 130 м над ур. моря [Российская Федерация]

Дополнительная информация

В oтличие oт бoльшинства пoгoдных сайтoв мы публикуем пoдрoбную метеoинфoрмацию в детальнoм прoфессиoнальнoм фoрмате.

Характеристики температуры и влажнoсти вoздуха измеряются на высoте 2 м в тени вдали oт зданий и деревьев.
Скoрoсть ветра измеряется на высoте 10 м (на урoвне рoста челoвека скoрoсть ветра ниже в 1.5-2 раза). Если метеoстанция нахoдится в гoрoде или в лесу, тo скoрoсть ветра занижена на 2-4 м/с пo сравнению с oткрытым местoм. Скoрoсть ветра над акватoриями крупных рек и oзёр, а также на вершинах хoлмoв на 2-5 м/с выше, чем в oбычных услoвиях.
Атмoсфернoе давление в разных тoчках местнoсти мoжет значительнo oтличаться oт давления на метеoстанции, в зависимoсти oт услoвий рельефа (при пoдъёме на 10 м давление пoнижается примернo на 1 мм рт.ст.).